Location: Grossmotten
(48.5500°N, 15.3833°E)
Time: 06:09:08
(UTC+00:00)

Cosmos 1125 Rocket - Pass Details

Date: 15 November 2019
Orbit: 758 x 779 km, 74.0° (Epoch: 10 December)

Event Time Altitude Azimuth Distance (km) Brightness Sun altitude
Rises 05:14:50 0° 192° (SSW) 3,244 6.8 -8.6°
Reaches altitude 10° 05:17:13 10° 189° (S) 2,319 6.1 -8.2°
Maximum altitude 05:22:26 66° 109° (ESE) 848 4.1 -7.4°
Drops below altitude 10° 05:27:40 10° 28° (NNE) 2,323 6.1 -6.6°
Sets 05:30:03 0° 26° (NNE) 3,251 6.8 -6.2°
